Regional Weather Roundup
Issued by NWS Shreveport, LA

Current Version | Previous Version | Text Only | Print | Product List | Glossary On
Versions: 1 2 3 4 5 6 7 8 9 10 11 12 13 14 15 16 17 18 19 20 21 22 23 24 25 26 27 28 29 30 31 32 33 34 35 36 37 38 39 40 41 42 43 44 45 46 47 48 49 50
000 ASUS44 KSHV 191810 RWRSHV THE FOUR STATE AREA WEATHER ROUNDUP NATIONAL WEATHER SERVICE SHREVEPORT LA 100 PM CDT MON APR 19 2021 NOTE: "FAIR" INDICATES FEW OR NO CLOUDS BELOW 12000 FEET WITH NO SIGNIFICANT WEATHER AND/OR OBSTRUCTIONS TO VISIBILITY. !LAZ001-LAZ014-TXZ097-191900 SHREVEPORT...MONROE...TEXARKANA RADIOS CITY SKY/WX TMP DP RH WIND PRES REMARKS SHREVEPORT PTSUNNY 71 37 28 VRB3 30.06F MONROE SUNNY 68 41 37 CALM 30.08F NATCHITOCHES SUNNY 68 41 37 N5 30.07F TEXARKANA MOSUNNY 70 36 28 SW6 30.06F $$ !LAZ001-LAZ014-TXZ097-191900 OTHER LOCATIONS... CITY SKY/WX TMP DP RH WIND PRES REMARKS DOWNTOWN SHV MOSUNNY 69 39 33 CALM 30.07F BOSSIER CITY MOSUNNY 68 40 36 NE3 30.06F RUSTON SUNNY 67 33 28 CALM 30.11F LITTLE ROCK MOSUNNY 68 37 32 NW7 30.04F EL DORADO MOSUNNY 68 35 29 VRB5 30.07F JACKSON MOSUNNY 69 40 34 VRB3 30.05F NEW ORLEANS MOSUNNY 70 42 36 N9 30.03F HOUSTON PTSUNNY 71 39 31 N6 30.06F LUFKIN MOSUNNY 70 39 32 VRB7 30.06F TYLER MOSUNNY 70 37 29 NW9 30.06F DAL FT WORTH PTSUNNY 70 34 26 S9 30.04F $$ !TXZ136-TXZ165-191900 TYLER...LUFKIN RADIOS CITY SKY/WX TMP DP RH WIND PRES REMARKS TYLER MOSUNNY 70 37 29 NW9 30.06F GILMER PTCLDY 66 34 29 E3 30.07F LONGVIEW MOSUNNY 67 35 30 VRB3 30.06F LUFKIN MOSUNNY 70 39 32 VRB7 30.06F $$ !TXZ136-TXZ165-191900 OTHER LOCATIONS... CITY SKY/WX TMP DP RH WIND PRES REMARKS NACOGDOCHES MOSUNNY 69 40 34 VRB7 30.07F BEAUMONT MOSUNNY 69 42 37 N9 30.05F HOUSTON PTSUNNY 71 39 31 N6 30.06F COLLEGE STN MOSUNNY 69 39 33 N8 30.07F AUSTIN PTSUNNY 70 40 33 E8 30.06F DAL FT WORTH PTSUNNY 70 34 26 S9 30.04F TEXARKANA MOSUNNY 70 36 28 SW6 30.06F SHREVEPORT PTSUNNY 71 37 28 VRB3 30.06F FORT POLK SUNNY 67 36 31 N7 30.04F LAKE CHARLES MOSUNNY 71 39 31 E10 30.05F $$

USA.gov is the U.S. government's official web portal to all federal, state and local government web resources and services.